Powrót do katalogu

SITRO-AIS-27

AktywnyŁącznośćPO
NORAD 59068·PAYLOAD·🇷🇺 Russia
Ta nazwa satelity nie została jeszcze potwierdzona przez oficjalne źródła.

Wystrzelony Feb 29, 2024 z Vostochny Cosmodrome

Loading…

Następne Przeloty (najbliższe 24 godziny)

TLE

ŚwieżeSource: Space-Track

Epoka: Sep 14, 2026, 21:34 UTC

1 59068U 24039T   26257.89907163  .00002955  00000-0  22740-3 0  9990
2 59068  95.3817 296.9081 0143146  14.1066 346.4092 14.94253206138135

Śledź SITRO-AIS-27 w czasie rzeczywistym z AllMySat

Download on the App Store